Regional Weather Roundup
Issued by NWS

Home | Current Version | Previous Version | Graphics & Text | Print | Product List | Glossary On
Versions: 1 2 3 4 5 6 7 8 9 10 11 12 13 14 15 16 17 18 19 20 21 22 23 24 25 26 27 28 29 30 31 32 33 34 35 36 37 38 39 40 41 42 43 44 45 46 47 48 49 50
000
ASUS45 KPSR 051800
RWRAZ

ARIZONA REGIONAL HOURLY WEATHER ROUNDUP
NATIONAL WEATHER SERVICE PHOENIX AZ
1100 AM MST TUE MAY 05 2015

NOTE: FAIR INDICATES FEW OR NO CLOUDS BELOW 12,000 FEET WITH NO
SIGNIFICANT WEATHER AND/OR OBSTRUCTIONS TO VISIBILITY.

AZZ001>003-036-051900-
NORTHWEST ARIZONA

CITY           SKY/WX    TMP DP  RH WIND       PRES   REMARKS
KINGMAN        SUNNY     69  47  45 W12       29.94S
6HR MIN TEMP:  55; 6HR MAX TEMP:  69; 6HR PCP: TRACE;

$$

AZZ004>008-015-016-018-051900-
NORTH CENTRAL ARIZONA

CITY           SKY/WX    TMP DP  RH WIND       PRES   REMARKS
GRAND CANYON   CLOUDY    50  45  83 W7        30.01S
6HR MIN TEMP:  44; 6HR MAX TEMP:  50; 6HR PCP:  0.03;

WILLIAMS       CLOUDY    46  45  93 W10G16    30.10S
PRESCOTT       CLOUDY    59  40  49 W9        30.01S
6HR MIN TEMP:  51; 6HR MAX TEMP:  61; 6HR PCP: TRACE;

FLAGSTAFF      NOT AVBL
PAYSON         CLOUDY    55  46  71 VRB7      30.03S
PAGE           PTSUNNY   67  47  48 CALM      29.88F
6HR MIN TEMP:  56; 6HR MAX TEMP:  67;

$$

AZZ009>014-017-051900-
NORTHEAST ARIZONA

CITY           SKY/WX    TMP DP  RH WIND       PRES   REMARKS
WINSLOW        NOT AVBL
SAINT JOHNS    PTSUNNY   58  41  53 SW15G22   29.97S
6HR MIN TEMP:  46; 6HR MAX TEMP:  60; 6HR PCP: TRACE;

WINDOW ROCK    CLOUDY    53  40  61 SW15      29.98F
6HR MIN TEMP:  45; 6HR MAX TEMP:  53; 6HR PCP: TRACE;

$$

AZZ023-051900-
GREATER PHOENIX AREA

CITY           SKY/WX    TMP DP  RH WIND       PRES   REMARKS
PHOENIX        MOSUNNY   76  52  43 SE5       29.90S
6HR MIN TEMP:  67; 6HR MAX TEMP:  76;

GLENDALE       MOSUNNY   75  52  43 SW5       29.92S
DEER VALLEY    CLOUDY    72  52  49 S8        29.90S
6HR MIN TEMP:  65; 6HR MAX TEMP:  72;

SCOTTSDALE     CLOUDY    72  50  45 VRB5      29.93S
6HR MIN TEMP:  65; 6HR MAX TEMP:  73;

MESA-FALCON    PTSUNNY   73  48  40 S7        29.91
MESA-GATEWAY   PTSUNNY   72  52  49 VRB7      29.93F
CHANDLER       MOSUNNY   75  48  38 S7        29.91F
$$

AZZ027-028-051900-
SOUTHWEST MARICOPA COUNTY AND PINAL COUNTY

CITY           SKY/WX    TMP DP  RH WIND       PRES   REMARKS
CASA GRANDE    SUNNY     73  48  40 S7        29.91F
6HR MIN TEMP:  59; 6HR MAX TEMP:  73;

$$

AZZ503-504-507>509-051900-
SOUTHEAST ARIZONA

CITY           SKY/WX    TMP DP  RH WIND       PRES   REMARKS
TUCSON         SUNNY     73  48  41 VRB3      29.97S
6HR MIN TEMP:  57; 6HR MAX TEMP:  74;

RYAN FIELD       N/A     73  50  43 CALM      29.96F
NOGALES        MOSUNNY   71  38  29 W8        30.00S
6HR MIN TEMP:  50; 6HR MAX TEMP:  72;

SAFFORD        MOSUNNY   71  45  39 W9        29.95F
6HR MIN TEMP:  50; 6HR MAX TEMP:  71;

$$

AZZ020-021-025-026-031-051900-
SOUTHWEST ARIZONA

CITY           SKY/WX    TMP DP  RH WIND       PRES   REMARKS
YUMA           NOT AVBL
$$

CAZ031-033-041-043-047-048-061-051900-
SOUTHERN CALIFORNIA

CITY           SKY/WX    TMP DP  RH WIND       PRES   REMARKS
DOWNTOWN L.A.  CLOUDY    65  48  54 SE5       29.99S
6HR MIN TEMP:  59; 6HR MAX TEMP:  65;

L.A. AIRPORT   CLOUDY    60  50  69 W7        30.01R
6HR MIN TEMP:  58; 6HR MAX TEMP:  60;

SAN DIEGO      CLOUDY    64  46  52 S6        30.02R
6HR MIN TEMP:  62; 6HR MAX TEMP:  64;

BURBANK        CLOUDY    60  47  61 E7        29.99S
6HR MIN TEMP:  57; 6HR MAX TEMP:  61;

ONTARIO        PTSUNNY   62  47  57 VRB3      29.98S
6HR MIN TEMP:  55; 6HR MAX TEMP:  63;

RIVERSIDE      CLOUDY    63  47  55 VRB3      29.98F
6HR MIN TEMP:  55; 6HR MAX TEMP:  63;

PALM SPRINGS   SUNNY     77  45  32 VRB5      29.88S
6HR MIN TEMP:  63; 6HR MAX TEMP:  78;

EL CENTRO NAS  MOSUNNY   80  36  20 E3        29.87S
6HR MIN TEMP:  63; 6HR MAX TEMP:  80;

IMPERIAL       SUNNY     79  39  23 VRB5      29.85S
6HR MIN TEMP:  60; 6HR MAX TEMP:  80;

BLYTHE         SUNNY     77  55  46 S9G16     29.86F
6HR MIN TEMP:  62; 6HR MAX TEMP:  77;

$$

NVZ020-UTZ003-051900-
SOUTHERN NEVADA-UTAH

CITY           SKY/WX    TMP DP  RH WIND       PRES   REMARKS
LAS VEGAS      NOT AVBL
SALT LAKE CITY CLOUDY    63  45  51 W15       29.85S
6HR MIN TEMP:  57; 6HR MAX TEMP:  64;

$$

NMZ009-TXZ055-051900-
NEW MEXICO-WEST TEXAS

CITY           SKY/WX    TMP DP  RH WIND       PRES   REMARKS
ALBUQUERQUE    PTSUNNY   58  41  53 W13       29.95F
6HR MIN TEMP:  50; 6HR MAX TEMP:  60; 6HR PCP: TRACE;

EL PASO        MOSUNNY   71  37  28 W14G25    29.96F
6HR MIN TEMP:  58; 6HR MAX TEMP:  72;

$$


........................KEY........................
SKY/WX - SKY CONDITION/WEATHER
TMP    - TEMPERATURE IN FAHRENHEIT
DP     - DEW POINT IN FAHRENHEIT
RH     - RELATIVE HUMIDITY IN PERCENT
WIND   - DIRECTION AND SPEED IN MILES PER HOUR (MPH)
VRB    - VARIABLE WIND DIRECTION
PRES   - MEAN SEA LEVEL PRESSURE IN INCHES OF MERCURY
         F - FALLING PRESSURE   R - RISING PRESSURE
         S - STEADY PRESSURE
VSB    - VISIBILITY IN MILES
HX     - HEAT INDEX IN FAHRENHEIT
WCI    - WIND CHILL INDEX IN FAHRENHEIT
TC     - TEMPERATURE IN CELSIUS WHICH IS ALSO KNOWN AS
         TEMPERATURE IN CENTIGRADE
AFB    - AIR FORCE BASE
         LUKE AFB IS LUKE AIR FORCE BASE
         DAVIS-MONTHAN IS DAVIS-MONTHAN AIR FORCE BASE
NAS    - NAVAL AIR STATION
         EL CENTRO NAS IS EL CENTRO NAVAL AIR STATION
N/A    - NOT AVAILABLE




USA.gov is the U.S. government's official web portal to all federal, state and local government web resources and services.